User: anonymous   Login
Location: Broletto
(44.6000°N, 10.5833°E)
Time: 00:15:36
(UTC+00:00)
Language:

Cosmos 1992 Rocket - Orbit

View from above orbital plane
View from above orbital plane
View from above satellite
View from above satellite

Ground track
Ground track

The orbit data is extracted from the following two-line orbital elements,

1 19770U 89005B   21174.62897823  .00000061  00000-0  28415-4 0  9997
2 19770  74.0443 224.5001 0006052 295.3265 182.7268 14.38876436697610
Epoch (UTC): 23 June 2021 15:05:43
Eccentricity: 0.0006052
inclination: 74.0443°
perigee height: 758 km
apogee height: 766 km
right ascension of ascending node: 224.5001°
argument of perigee: 295.3265°
revolutions per day: 14.38876436
mean anomaly at epoch: 182.7268°
orbit number at epoch: 69761

The dashed part of the orbit path shows where the satellite is in the earth's shadow,  

DLR